Stations météo

réclame
Mon MeteoGroup
Capo Palinuro, Italie (16310): Température de l'air & dewpoint: 18.01.2018 09:00:00 - 24.01.2018 09:00:00 (CET)Capo Palinuro, Italie (16310): Vitesse du vent: 18.01.2018 09:00:00 - 24.01.2018 09:00:00 (CET)Capo Palinuro, Italie (16310): Direction du vent: 18.01.2018 09:00:00 - 24.01.2018 09:00:00 (CET)Capo Palinuro, Italie (16310): reduced air pressure: 18.01.2018 09:00:00 - 24.01.2018 09:00:00 (CET)Capo Palinuro, Italie (16310): visibility: 18.01.2018 09:00:00 - 24.01.2018 09:00:00 (CET)Capo Palinuro, Italie (16310): Ensoleillement: 18.01.2018 09:00:00 - 24.01.2018 09:00:00 (CET)
Date & Time tt [°C] td [°C] ff [km/h] ff [knt] dd ppp [hPa] vv [km] sd [min]
24.01.2018 09:00:00 - - - - - - - -
24.01.2018 08:00:00 10,4 3,0 15 8 N 1026,6 20 60
24.01.2018 07:00:00 11,0 3,5 9 5 NNE 1026,2 20 0
24.01.2018 06:00:00 10,8 3,6 0 0 N 1024,5 20 -
24.01.2018 05:00:00 11,0 5,7 8 4 NE 1024,5 20 -
24.01.2018 04:00:00 11,0 5,7 11 6 NNE 1024,5 20 -
24.01.2018 03:00:00 11,2 5,1 9 5 NNE 1024,5 20 -
24.01.2018 02:00:00 11,8 4,3 9 5 N 1024,4 20 -
24.01.2018 01:00:00 11,8 4,3 9 5 NNE 1024,4 20 -
24.01.2018 00:00:00 11,8 4,5 11 6 NNE 1023,4 20 -
23.01.2018 23:00:00 11,8 5,2 9 5 N 1023,3 20 -
23.01.2018 22:00:00 12,0 5,6 11 6 NNE 1023,0 20 60
23.01.2018 21:00:00 12,6 6,0 9 5 NNE 1021,1 20 -
23.01.2018 20:00:00 13,0 6,6 11 6 NNE 1020,8 20 -
23.01.2018 19:00:00 13,0 6,6 9 5 NNE 1020,2 20 -
23.01.2018 18:00:00 13,8 7,4 4 2 N 1019,1 20 -
23.01.2018 17:00:00 14,8 10,4 0 0 N 1018,2 20 48
23.01.2018 16:00:00 15,0 10,1 0 0 N 1017,3 20 60
23.01.2018 15:00:00 - - - - - - - -
23.01.2018 14:00:00 - - - - - - - -
23.01.2018 13:00:00 14,0 8,1 9 5 NNE 1017,0 10 48
23.01.2018 12:00:00 - - - - - - - -
23.01.2018 11:00:00 - - - - - - - -
23.01.2018 10:00:00 - - - - - - - -
23.01.2018 09:00:00 11,0 8,0 8 4 SSW 1015,4 10 0
23.01.2018 08:00:00 11,0 8,6 9 5 ESE 1015,2 15 0
23.01.2018 07:00:00 11,0 9,4 11 6 ESE 1015,2 15 0
23.01.2018 06:00:00 10,8 6,5 13 7 WSW 1015,3 20 -
23.01.2018 05:00:00 - - - - - - - -
23.01.2018 04:00:00 11,2 7,9 8 4 SSW 1015,2 20 -
23.01.2018 03:00:00 11,2 7,3 11 6 SSW 1015,7 20 -
23.01.2018 02:00:00 10,8 5,5 8 4 N 1015,8 20 -
23.01.2018 01:00:00 10,8 5,6 8 4 NNE 1015,9 20 -
23.01.2018 00:00:00 11,0 5,1 8 4 NNE 1016,0 20 -
22.01.2018 23:00:00 10,6 5,4 13 7 NW 1015,5 20 -
22.01.2018 22:00:00 10,6 6,5 11 6 NNW 1015,4 20 -
22.01.2018 21:00:00 10,4 6,5 16 9 NW 1015,2 20 -
22.01.2018 20:00:00 11,0 7,7 15 8 NW 1015,0 20 -
22.01.2018 19:00:00 12,0 8,3 18 10 NNW 1014,9 20 -
22.01.2018 18:00:00 12,6 8,3 15 8 NW 1014,8 20 -
22.01.2018 17:00:00 13,0 7,0 13 7 N 1014,8 20 54
22.01.2018 16:00:00 13,8 6,2 15 8 NNW 1014,7 20 60
22.01.2018 15:00:00 14,0 5,1 5 3 E 1014,7 20 60
22.01.2018 14:00:00 14,0 5,1 11 6 ESE 1014,8 20 60
22.01.2018 13:00:00 13,8 4,3 11 6 SSW 1014,5 20 60
22.01.2018 12:00:00 12,2 4,0 4 2 ESE 1014,5 20 60
22.01.2018 11:00:00 - - - - - - - -
22.01.2018 10:00:00 11,0 2,1 0 0 N 1013,4 20 60
22.01.2018 09:00:00 9,0 2,8 0 0 N 1012,3 20 60
22.01.2018 08:00:00 9,2 3,2 8 4 N 1012,2 20 24
22.01.2018 07:00:00 9,2 3,8 5 3 N 1011,3 20 -
22.01.2018 06:00:00 9,2 3,0 5 3 NNW 1011,2 20 -
22.01.2018 05:00:00 9,2 2,7 8 4 NNW 1010,9 20 -
22.01.2018 04:00:00 9,2 2,7 8 4 N 1010,3 20 -
22.01.2018 03:00:00 9,2 2,1 9 5 N 1010,2 20 -
22.01.2018 02:00:00 9,2 1,8 8 4 NNW 1009,7 20 -
22.01.2018 01:00:00 10,0 3,3 9 5 NW 1008,5 20 -
22.01.2018 00:00:00 11,0 4,0 8 4 WNW 1007,7 20 -
21.01.2018 23:00:00 11,0 5,7 9 5 NNW 1007,0 20 -
21.01.2018 22:00:00 11,4 5,9 15 8 WNW 1006,0 20 -
21.01.2018 21:00:00 12,4 8,7 9 5 NW 1005,3 20 -
21.01.2018 20:00:00 12,4 9,0 13 7 WNW 1004,5 20 -
21.01.2018 19:00:00 12,6 9,4 13 7 NW 1003,4 20 -
21.01.2018 18:00:00 12,8 9,6 16 9 NW 1002,8 20 -
21.01.2018 17:00:00 13,0 9,8 16 9 WNW 1002,8 20 48
21.01.2018 16:00:00 13,0 9,8 16 9 W 1002,8 20 60
21.01.2018 15:00:00 13,0 9,8 21 11 W 1003,0 15 36
21.01.2018 14:00:00 12,8 9,6 24 13 W 1003,8 10 0
21.01.2018 13:00:00 12,2 9,1 13 7 WSW 1004,9 10 0
21.01.2018 12:00:00 12,0 9,0 18 10 WSW 1006,3 10 0
21.01.2018 11:00:00 12,0 9,0 15 8 SW 1006,7 7 0
21.01.2018 10:00:00 12,0 9,4 22 12 NNE 1007,4 10 0
21.01.2018 09:00:00 12,0 9,4 31 17 SE 1008,2 10 0
21.01.2018 08:00:00 12,0 9,2 22 12 SSE 1008,3 12 0
21.01.2018 07:00:00 12,0 9,2 22 12 SW 1008,7 12 -
21.01.2018 06:00:00 11,8 9,0 34 18 SSE 1009,0 12 -
21.01.2018 05:00:00 12,0 9,4 29 16 SSW 1010,0 12 -
21.01.2018 04:00:00 12,0 9,4 24 13 ESE 1011,9 12 -
21.01.2018 03:00:00 12,0 9,5 22 12 SSE 1012,1 15 -
21.01.2018 02:00:00 11,8 9,9 21 11 S 1013,1 15 -
21.01.2018 01:00:00 11,8 9,9 22 12 SSW 1013,1 10 -
21.01.2018 00:00:00 12,0 8,7 22 12 SW 1013,1 15 -
20.01.2018 23:00:00 12,0 9,2 18 10 SSW 1013,1 15 -
20.01.2018 22:00:00 12,0 9,9 9 5 ESE 1013,1 15 -
20.01.2018 21:00:00 12,0 9,9 11 6 SSE 1013,1 15 -
20.01.2018 20:00:00 12,2 9,9 11 6 ESE 1013,0 15 -
20.01.2018 19:00:00 12,4 10,1 11 6 ENE 1013,0 15 -
20.01.2018 18:00:00 12,6 10,7 13 7 SSW 1012,8 15 -
20.01.2018 17:00:00 12,6 10,3 13 7 SSW 1012,7 15 0
20.01.2018 16:00:00 13,0 10,4 11 6 ENE 1012,6 15 48
20.01.2018 15:00:00 13,0 10,0 11 6 SSE 1012,6 15 42
20.01.2018 14:00:00 12,8 9,1 21 11 SE 1013,0 15 48
20.01.2018 13:00:00 12,8 9,4 15 8 SSE 1013,2 15 48
20.01.2018 12:00:00 12,6 8,5 16 9 ENE 1013,3 15 60
20.01.2018 11:00:00 12,4 8,5 15 8 NNE 1013,3 15 0
20.01.2018 10:00:00 12,6 9,2 18 10 N 1013,1 15 0
20.01.2018 09:00:00 12,0 9,5 22 12 NNE 1013,1 15 -
20.01.2018 08:00:00 12,2 9,8 15 8 NNE 1013,2 15 0
20.01.2018 07:00:00 12,0 9,9 8 4 NNE 1013,1 15 -
20.01.2018 06:00:00 11,8 9,4 8 4 N 1013,1 15 -
20.01.2018 05:00:00 12,0 9,5 0 0 N 1013,2 15 -
20.01.2018 04:00:00 11,8 9,2 0 0 N 1013,2 10 -
20.01.2018 03:00:00 12,0 10,1 0 0 N 1013,8 10 -
20.01.2018 02:00:00 11,8 9,4 0 0 N 1014,6 10 -
20.01.2018 01:00:00 12,0 9,4 0 0 N 1014,5 10 -
20.01.2018 00:00:00 12,0 9,5 0 0 N 1015,0 10 -
19.01.2018 23:00:00 12,0 9,5 0 0 N 1014,7 10 -
19.01.2018 22:00:00 12,0 9,5 0 0 N 1014,7 10 -
19.01.2018 21:00:00 12,0 9,5 0 0 N 1015,2 10 -
19.01.2018 20:00:00 12,0 9,5 0 0 N 1014,9 10 -
19.01.2018 19:00:00 12,0 9,9 0 0 N 1015,1 10 -
19.01.2018 18:00:00 12,2 10,1 0 0 N 1015,2 10 -
19.01.2018 17:00:00 12,8 10,7 11 6 ESE 1015,4 10 0
19.01.2018 16:00:00 13,0 10,9 11 6 ESE 1015,6 10 0
19.01.2018 15:00:00 12,6 10,1 18 10 SSE 1016,0 10 0
19.01.2018 14:00:00 13,0 10,7 18 10 SSE 1016,0 10 0
19.01.2018 13:00:00 12,8 11,2 18 10 SSE 1017,0 10 0
19.01.2018 12:00:00 13,0 10,5 15 8 SSE 1018,0 10 0
19.01.2018 11:00:00 13,0 10,0 11 6 NE 1018,0 15 -
19.01.2018 10:00:00 12,2 9,8 9 5 W 1018,1 15 0
19.01.2018 09:00:00 12,0 9,5 13 7 WSW 1018,2 15 0
19.01.2018 08:00:00 11,4 7,7 11 6 W 1018,3 15 0
19.01.2018 07:00:00 11,2 8,8 13 7 NNE 1018,3 15 0
19.01.2018 06:00:00 11,2 9,3 9 5 N 1018,5 15 -
19.01.2018 05:00:00 11,4 9,0 9 5 NNE 1019,3 15 -
19.01.2018 04:00:00 11,2 7,9 13 7 NW 1019,2 15 -
19.01.2018 03:00:00 11,2 7,3 9 5 NNE 1019,3 15 -
19.01.2018 02:00:00 11,4 7,3 9 5 NNE 1019,7 15 -
19.01.2018 01:00:00 10,8 8,0 11 6 NE 1020,1 15 -
19.01.2018 00:00:00 11,0 8,0 9 5 NNE 1020,3 15 -
18.01.2018 23:00:00 11,0 7,7 13 7 NW 1020,3 18 -
18.01.2018 22:00:00 11,2 7,3 5 3 NE 1020,4 20 -
18.01.2018 21:00:00 11,2 5,9 8 4 NW 1020,6 20 -
18.01.2018 20:00:00 11,0 5,1 8 4 NNE 1020,6 20 -
18.01.2018 19:00:00 11,0 4,2 8 4 WNW 1020,6 20 -
18.01.2018 18:00:00 11,0 3,8 5 3 NNE 1020,6 25 -
18.01.2018 17:00:00 11,2 3,2 9 5 NNE 1020,6 25 30
18.01.2018 16:00:00 12,0 1,3 8 4 NNE 1020,7 30 60
18.01.2018 15:00:00 12,2 0,3 5 3 NE 1020,8 30 60
18.01.2018 14:00:00 12,2 -0,3 5 3 NW 1020,9 30 60
18.01.2018 13:00:00 12,0 -3,0 8 4 N 1021,0 30 60
18.01.2018 12:00:00 12,2 -4,9 5 3 NNE 1020,9 30 60
18.01.2018 11:00:00 11,0 -6,8 8 4 N 1020,7 20 60
18.01.2018 10:00:00 10,2 -7,0 0 0 N 1019,4 20 60
18.01.2018 09:00:00 9,6 -5,5 0 0 N 1019,5 20 60

tt = Température de l'air
td = dewpoint
ff = Vitesse du vent
dd = Direction du vent
ppp = reduced air pressure
vv = visibility
sd = Ensoleillement

stations d'obs. à proximité